Overview Statistics Trail Chart Weather Telemetry Raw packets
 

This is the latest recevied weather packets stored in our database for station/object W8RSN-13. If no packets are shown the sender has not sent any weather packets the latest 10 day(s).

<< 78 79 80 81 82 83 84 >>
Time Temp. Humidity Pressure Rain* Wind** Luminosity Snow
1788119371 32.78° C 44% 1013.9 hPa - - - -
1788119070 32.22° C 44% 1013.8 hPa - - - -
1788118769 31.67° C 45% 1013.8 hPa - - - -
1788118468 32.22° C 45% 1014.1 hPa - - - -
1788118168 31.67° C 45% 1014 hPa - - - -
1788117867 31.67° C 45% 1014.2 hPa - - - -
1788117566 31.67° C 46% 1014.2 hPa - - - -
1788117265 31.67° C 45% 1014.2 hPa - - - -
1788116964 31.67° C 46% 1014.3 hPa - - - -
1788116663 31.67° C 44% 1014.4 hPa - - - -
1788116362 31.67° C 43% 1014.4 hPa - - - -
1788116061 31.67° C 43% 1014.5 hPa - - - -
1788115761 31.67° C 43% 1014.6 hPa - - - -
1788115459 31.11° C 42% 1014.5 hPa - - - -
1788115159 31.11° C 42% 1014.6 hPa - - - -
1788114858 31.11° C 42% 1014.6 hPa - - - -
1788114557 31.11° C 42% 1014.6 hPa - - - -
1788114256 31.11° C 42% 1014.5 hPa - - - -
1788113975 30.56° C 43% 1014.7 hPa - - - -
1788113674 30.56° C 44% 1014.6 hPa - - - -
1788113374 30.56° C 45% 1014.4 hPa - - - -
1788113072 30.56° C 44% 1014.5 hPa - - - -
1788112772 30.56° C 45% 1014.6 hPa - - - -
1788112471 30° C 45% 1014.5 hPa - - - -
1788112170 30° C 45% 1014.6 hPa - - - -

* Rain since midnight (hover to see other rain measurements)
** Current wind speed in m/s (hover to see current wind gust speed)